sat.trackr.live / text

‹ back to catalog

DISKSAT D

NORAD 67221 · 2025-305C

PAYLOAD ACTIVE UNKNOWN

§ Identity

Operator
Country
US
Launch date
2025-12-18
Launch site
WLPIS
Launch vehicle
Mass (kg)
RCS (m²)

External: N2YO · Heavens-Above · Gunter

§ Orbital elements

Epoch: 2026-09-20T03:22:21.188064Z

Period
95.39 min
Inclination
45.0051°
Eccentricity
0.0006470
Mean motion
15.09622703 rev/d
Perigee alt
532.9 km
Apogee alt
541.8 km
Semi-major
6,915.5 km
B*
1.5353e-4
RAAN
299.6182°
Arg perigee
328.6203°
Mean anomaly
31.4286°
Rev number
4,166

§ Raw data

DISKSAT D1 67221U 25305C   26263.14052301  .00002261  00000+0  15353-3 0  99982 67221  45.0051 299.6182 0006470 328.6203  31.4286 15.09622703 41669

JSON: /api/v1/satellites/67221 · /tle

For live sub-satellite position, see the globe view (requires WebGL).

§ Visibility from observer

Set your observer location to see the next 7 days of passes ≥ 10°. The values pass through the URL so the page stays shareable.

No JS? Fill the form by hand. The geolocation button needs JavaScript.